When you browse on this site, cookies collect data to enhance your experience and personalize the content and advertising you see.
Visit our Privacy Policy to learn more. By continuing to use the site, you agree to this use of cookies and data.
  • In Romania
  • List of Countries
  • For 7 days
  • Water Temperature
  • Weather Map
  • Weather Widgets
  • user-avatar
    Login

    Hourly Weather Hajnówka

    Today, 7 December, Saturday

    Time Temperature Precipitation Wind Pressure Humidity
    00:00 -4°C° 0 mm 5 mps 742 mmHg 64%
    01:00 -4°C° 0 mm 5 mps 742 mmHg 64%
    02:00 -4°C° 0 mm 5 mps 742 mmHg 65%
    03:00 -4°C° 0 mm 5 mps 741 mmHg 64%
    04:00 -4°C° 0 mm 5 mps 740 mmHg 63%
    05:00 -2°C° 0 mm 5 mps 740 mmHg 62%
    06:00 -2°C° 0 mm 5 mps 740 mmHg 62%
    07:00 -2°C° 0 mm 5 mps 740 mmHg 62%
    08:00 -2°C° 0 mm 5 mps 739 mmHg 61%
    09:00 -3°C° 0 mm 6 mps 739 mmHg 59%
    10:00 -2°C° 0 mm 6 mps 739 mmHg 57%
    11:00 -1°C° 0 mm 7 mps 739 mmHg 54%
    12:00 -1°C° 0 mm 7 mps 738 mmHg 62%
    13:00 -1°C° 0 mm 7 mps 738 mmHg 69%
    14:00 -1°C° 0 mm 7 mps 738 mmHg 76%
    15:00 0°C° 0 mm 7 mps 738 mmHg 79%
    16:00 0°C° 0 mm 7 mps 737 mmHg 82%
    17:00 +2°C° 0 mm 7 mps 737 mmHg 85%
    18:00 +2°C° 0.1 mm 7 mps 737 mmHg 87%
    19:00 +3°C° 0.1 mm 7 mps 737 mmHg 89%
    20:00 +3°C° 0.1 mm 7 mps 738 mmHg 92%
    21:00 +3°C° 0 mm 7 mps 738 mmHg 91%
    22:00 +3°C° 0 mm 6 mps 738 mmHg 90%
    23:00 +3°C° 0 mm 6 mps 738 mmHg 89%

    Tomorrow, 8 December, Sunday

    Time Temperature Precipitation Wind Pressure Humidity
    00:00 +3°C° 0 mm 6 mps 738 mmHg 89%
    01:00 +3°C° 0 mm 6 mps 739 mmHg 90%
    02:00 +3°C° 0 mm 6 mps 739 mmHg 90%
    03:00 +2°C° 0 mm 6 mps 739 mmHg 90%
    04:00 +2°C° 0 mm 5 mps 739 mmHg 90%
    05:00 +1°C° 0 mm 5 mps 739 mmHg 89%
    06:00 +1°C° 0 mm 5 mps 740 mmHg 91%
    07:00 +1°C° 0 mm 5 mps 740 mmHg 92%
    08:00 +1°C° 0 mm 4 mps 741 mmHg 94%
    09:00 +1°C° 0.1 mm 5 mps 741 mmHg 93%
    10:00 +2°C° 0.1 mm 5 mps 741 mmHg 91%
    11:00 +3°C° 0.1 mm 5 mps 741 mmHg 90%
    12:00 +3°C° 0 mm 5 mps 740 mmHg 87%
    13:00 +3°C° 0 mm 6 mps 740 mmHg 84%
    14:00 +4°C° 0 mm 6 mps 740 mmHg 81%
    15:00 +4°C° 0 mm 6 mps 739 mmHg 80%
    16:00 +4°C° 0 mm 6 mps 739 mmHg 79%
    17:00 +4°C° 0 mm 6 mps 738 mmHg 78%
    18:00 +3°C° 0 mm 6 mps 738 mmHg 77%
    19:00 +3°C° 0 mm 6 mps 738 mmHg 77%
    20:00 +3°C° 0 mm 6 mps 738 mmHg 77%
    21:00 +3°C° 0.1 mm 7 mps 737 mmHg 78%
    22:00 +3°C° 0.1 mm 7 mps 737 mmHg 79%
    23:00 +4°C° 0.1 mm 7 mps 736 mmHg 79%

    Day after tomorrow, 9 December, Monday

    Time Temperature Precipitation Wind Pressure Humidity
    00:00 +4°C° 0.3 mm 7 mps 736 mmHg 82%
    01:00 +4°C° 0.3 mm 7 mps 736 mmHg 85%
    02:00 +4°C° 0.3 mm 7 mps 735 mmHg 88%
    03:00 +4°C° 0.1 mm 6 mps 735 mmHg 88%
    04:00 +4°C° 0.1 mm 6 mps 735 mmHg 88%
    05:00 +4°C° 0.1 mm 6 mps 735 mmHg 88%
    06:00 +4°C° 0 mm 6 mps 735 mmHg 88%
    07:00 +4°C° 0 mm 6 mps 735 mmHg 88%
    08:00 +4°C° 0 mm 6 mps 735 mmHg 88%
    09:00 +4°C° 1.1 mm 6 mps 735 mmHg 89%
    10:00 +4°C° 1.1 mm 6 mps 735 mmHg 90%
    11:00 +4°C° 1.1 mm 6 mps 735 mmHg 91%
    12:00 +5°C° 0.1 mm 6 mps 735 mmHg 87%
    13:00 +5°C° 0.1 mm 6 mps 735 mmHg 83%
    14:00 +7°C° 0.1 mm 6 mps 735 mmHg 79%
    15:00 +6°C° 0 mm 5 mps 735 mmHg 81%
    16:00 +6°C° 0 mm 5 mps 735 mmHg 82%
    17:00 +5°C° 0 mm 4 mps 735 mmHg 84%
    18:00 +5°C° 0 mm 4 mps 736 mmHg 83%
    19:00 +4°C° 0 mm 4 mps 736 mmHg 83%
    20:00 +4°C° 0 mm 4 mps 736 mmHg 82%
    21:00 +4°C° 0 mm 4 mps 737 mmHg 82%
    22:00 +4°C° 0 mm 4 mps 737 mmHg 81%
    23:00 +3°C° 0 mm 5 mps 737 mmHg 80%

    10 December, Tuesday

    Time Temperature Precipitation Wind Pressure Humidity
    00:00 +2°C° 0 mm 5 mps 737 mmHg 82%
    01:00 +2°C° 0 mm 5 mps 737 mmHg 83%
    02:00 +2°C° 0 mm 5 mps 737 mmHg 84%
    03:00 +1°C° 0 mm 5 mps 738 mmHg 85%
    04:00 +1°C° 0 mm 5 mps 738 mmHg 86%
    05:00 +1°C° 0 mm 5 mps 738 mmHg 87%
    06:00 +1°C° 0 mm 4 mps 738 mmHg 87%
    07:00 +1°C° 0 mm 4 mps 738 mmHg 88%
    08:00 0°C° 0 mm 4 mps 739 mmHg 88%
    09:00 +1°C° 0 mm 5 mps 739 mmHg 86%
    10:00 +1°C° 0 mm 5 mps 740 mmHg 84%
    11:00 +2°C° 0 mm 5 mps 740 mmHg 83%
    12:00 +2°C° 0.1 mm 5 mps 741 mmHg 84%
    13:00 +2°C° 0.1 mm 5 mps 741 mmHg 85%
    14:00 +3°C° 0.1 mm 6 mps 741 mmHg 86%
    15:00 +3°C° 0.1 mm 5 mps 742 mmHg 85%
    16:00 +2°C° 0.1 mm 5 mps 743 mmHg 85%
    17:00 +2°C° 0.1 mm 5 mps 744 mmHg 84%
    18:00 +2°C° 0.1 mm 5 mps 745 mmHg 82%
    19:00 +1°C° 0.1 mm 5 mps 746 mmHg 80%
    20:00 +1°C° 0.1 mm 5 mps 747 mmHg 79%
    21:00 0°C° 0 mm 4 mps 748 mmHg 78%
    22:00 0°C° 0 mm 3 mps 748 mmHg 78%
    23:00 +1°C° 0 mm 2 mps 749 mmHg 77%

    11 December, Wednesday

    Time Temperature Precipitation Wind Pressure Humidity
    00:00 -1°C° 0 mm 2 mps 750 mmHg 78%
    01:00 -1°C° 0 mm 2 mps 750 mmHg 79%
    02:00 -2°C° 0 mm 2 mps 750 mmHg 79%
    03:00 0°C° 0 mm 1 mps 751 mmHg 78%
    04:00 0°C° 0 mm 1 mps 751 mmHg 77%
    05:00 -1°C° 0 mm 0 mps 751 mmHg 76%
    06:00 0°C° 0 mm 1 mps 751 mmHg 74%
    07:00 0°C° 0 mm 1 mps 751 mmHg 72%
    08:00 0°C° 0 mm 1 mps 751 mmHg 69%
    09:00 -1°C° 0 mm 2 mps 751 mmHg 65%
    10:00 -1°C° 0 mm 3 mps 751 mmHg 60%
    11:00 0°C° 0 mm 3 mps 752 mmHg 55%
    12:00 0°C° 0 mm 3 mps 751 mmHg 53%
    13:00 -1°C° 0 mm 4 mps 751 mmHg 51%
    14:00 0°C° 0 mm 4 mps 750 mmHg 49%
    15:00 -1°C° 0 mm 4 mps 750 mmHg 53%
    16:00 -2°C° 0 mm 4 mps 749 mmHg 57%
    17:00 -2°C° 0 mm 4 mps 749 mmHg 62%
    18:00 -2°C° 0 mm 4 mps 749 mmHg 66%
    19:00 -2°C° 0 mm 4 mps 749 mmHg 71%
    20:00 -2°C° 0 mm 4 mps 749 mmHg 75%
    21:00 -2°C° 0 mm 4 mps 749 mmHg 79%
    22:00 -2°C° 0 mm 4 mps 748 mmHg 82%
    23:00 -2°C° 0 mm 4 mps 748 mmHg 85%

    12 December, Thursday

    Time Temperature Precipitation Wind Pressure Humidity
    00:00 -2°C° 0 mm 4 mps 747 mmHg 87%
    01:00 -2°C° 0 mm 4 mps 747 mmHg 90%
    02:00 -2°C° 0 mm 4 mps 747 mmHg 92%
    03:00 -2°C° 0 mm 4 mps 746 mmHg 92%
    04:00 -2°C° 0 mm 4 mps 746 mmHg 92%
    05:00 -2°C° 0 mm 4 mps 745 mmHg 93%
    06:00 -2°C° 0 mm 4 mps 745 mmHg 93%
    07:00 -2°C° 0 mm 4 mps 745 mmHg 92%
    08:00 -2°C° 0 mm 4 mps 745 mmHg 92%
    09:00 -2°C° 0 mm 5 mps 745 mmHg 90%
    10:00 -1°C° 0 mm 5 mps 745 mmHg 88%
    11:00 -1°C° 0 mm 5 mps 745 mmHg 86%
    12:00 0°C° 0 mm 5 mps 744 mmHg 86%
    13:00 0°C° 0 mm 5 mps 744 mmHg 85%
    14:00 0°C° 0 mm 4 mps 744 mmHg 85%
    15:00 0°C° 0 mm 4 mps 744 mmHg 87%
    16:00 0°C° 0 mm 4 mps 744 mmHg 89%
    17:00 0°C° 0 mm 3 mps 743 mmHg 91%
    18:00 0°C° 0 mm 3 mps 743 mmHg 91%
    19:00 0°C° 0 mm 3 mps 743 mmHg 91%
    20:00 0°C° 0 mm 3 mps 743 mmHg 92%
    21:00 0°C° 0 mm 3 mps 743 mmHg 92%
    22:00 0°C° 0 mm 3 mps 743 mmHg 93%
    23:00 0°C° 0 mm 3 mps 743 mmHg 93%
    Show more